Location: Buffign�court
(47.8126°N, 6.0176°E)
Time: 01:56:10
(UTC+00:00)

Cosmos 2219 Rocket - Pass Details

Date: 16 June 2021
Orbit: 829 x 845 km, 71.0° (Epoch: 04 August)

Event Time Altitude Azimuth Distance (km) Brightness Sun altitude
Exits shadow 21:24:42 17° 166° (SSE) 2,037 3.6 -12.9°
Maximum altitude 21:28:36 38° 107° (ESE) 1,273 2.8 -13.2°
Drops below altitude 10° 21:33:47 10° 41° (NE) 2,474 4.9 -13.6°
Sets 21:36:23 0° 34° (NNE) 3,412 5.8 -13.8°
